Voltar ao catálogo

FGN-100-D3

AtivoComunicaçõesSSO
NORAD 68464·PAYLOAD·🇹🇷 Turkey

Lançado Mar 30, 2026 de Vandenberg Space Force Base

Loading…

Próximas Passagens (próximas 24 horas)

TLE

AtualizadoSource: Space-Track

Época: Sep 14, 2026, 08:34 UTC

1 68464U 26067BA  26257.35715630  .00003736  00000-0  18513-3 0  9991
2 68464  97.4618 214.4211 0004536 117.8813 242.2881 15.18361346 25469

Acompanhe FGN-100-D3 em tempo real com AllMySat

Download on the App Store